Time,TemperatureF,DewpointF,PressureIn,WindDirection,WindDirectionDegrees,WindSpeedMPH,WindSpeedGustMPH,Humidity,HourlyPrecipIn,Conditions,Clouds,dailyrainin,SoftwareType,DateUTC
2013-04-15 00:02:00,36.4,29.2,29.88,NE,45,0.0,1.8,75,0.00,,,0.00,WUHU216HW,2013-04-15 07:02:00,
2013-04-15 00:08:00,36.4,28.8,29.88,East,90,0.0,1.8,74,0.00,,,0.00,WUHU216HW,2013-04-15 07:08:00,
2013-04-15 00:14:00,36.4,28.8,29.88,NE,45,1.3,3.1,74,0.00,,,0.00,WUHU216HW,2013-04-15 07:14:00,
2013-04-15 00:21:00,36.4,28.8,29.88,NNE,23,0.0,3.1,74,0.00,,,0.00,WUHU216HW,2013-04-15 07:21:00,
2013-04-15 00:26:00,36.4,28.8,29.88,North,0,1.3,1.6,74,0.00,,,0.00,WUHU216HW,2013-04-15 07:26:00,
2013-04-15 00:31:00,36.4,28.8,29.88,NE,45,0.0,2.9,74,0.00,,,0.00,WUHU216HW,2013-04-15 07:31:00,
2013-04-15 00:36:00,36.4,28.8,29.89,NE,45,0.0,2.9,74,0.00,,,0.00,WUHU216HW,2013-04-15 07:36:00,
2013-04-15 00:41:00,36.4,28.8,29.89,NE,45,0.0,0.9,74,0.00,,,0.00,WUHU216HW,2013-04-15 07:41:00,
2013-04-15 00:46:00,36.2,28.6,29.89,NE,45,0.0,0.0,74,0.00,,,0.00,WUHU216HW,2013-04-15 07:46:00,
2013-04-15 00:51:00,36.2,28.6,29.89,NE,45,0.0,0.7,74,0.00,,,0.00,WUHU216HW,2013-04-15 07:51:00,
2013-04-15 00:56:00,36.4,28.8,29.89,NE,45,0.0,0.7,74,0.00,,,0.00,WUHU216HW,2013-04-15 07:56:00,
2013-04-15 01:01:00,36.4,29.2,29.89,North,0,0.0,2.5,75,0.00,,,0.00,WUHU216HW,2013-04-15 08:01:00,
2013-04-15 01:06:00,36.4,28.8,29.89,North,0,0.0,2.5,74,0.00,,,0.00,WUHU216HW,2013-04-15 08:06:00,
2013-04-15 01:11:00,36.4,28.8,29.89,North,0,0.0,0.9,74,0.00,,,0.00,WUHU216HW,2013-04-15 08:11:00,
2013-04-15 01:16:00,36.2,28.6,29.89,North,0,0.4,2.0,74,0.00,,,0.00,WUHU216HW,2013-04-15 08:16:00,
2013-04-15 01:21:00,36.2,28.6,29.89,NNE,23,0.4,2.0,74,0.00,,,0.00,WUHU216HW,2013-04-15 08:21:00,
2013-04-15 01:26:00,36.0,28.4,29.89,NNE,23,0.0,1.8,74,0.00,,,0.00,WUHU216HW,2013-04-15 08:26:00,
2013-04-15 01:31:00,36.0,28.4,29.89,NNE,23,0.0,0.4,74,0.00,,,0.00,WUHU216HW,2013-04-15 08:31:00,
2013-04-15 01:36:00,35.8,28.3,29.89,NNE,23,0.0,0.0,74,0.00,,,0.00,WUHU216HW,2013-04-15 08:36:00,
2013-04-15 01:41:00,35.6,28.1,29.89,NNE,23,0.0,1.1,74,0.00,,,0.00,WUHU216HW,2013-04-15 08:41:00,
2013-04-15 01:46:00,35.6,28.1,29.89,NNE,23,0.0,1.1,74,0.00,,,0.00,WUHU216HW,2013-04-15 08:46:00,
2013-04-15 01:51:00,35.3,27.7,29.89,NNE,23,0.0,1.1,74,0.00,,,0.00,WUHU216HW,2013-04-15 08:51:00,
2013-04-15 01:56:00,35.1,27.5,29.89,NNE,23,0.0,0.0,74,0.00,,,0.00,WUHU216HW,2013-04-15 08:56:00,
2013-04-15 02:01:00,34.9,27.4,29.89,NNE,23,0.0,1.1,74,0.00,,,0.00,WUHU216HW,2013-04-15 09:01:00,
2013-04-15 02:06:00,34.9,27.4,29.89,NNE,23,0.0,1.1,74,0.00,,,0.00,WUHU216HW,2013-04-15 09:06:00,
2013-04-15 02:11:00,34.7,26.9,29.89,NNE,23,0.0,0.0,73,0.00,,,0.00,WUHU216HW,2013-04-15 09:11:00,
2013-04-15 02:16:00,34.6,26.7,29.89,ESE,113,0.4,0.4,73,0.00,,,0.00,WUHU216HW,2013-04-15 09:16:00,
2013-04-15 02:21:00,34.4,26.6,29.89,ESE,113,0.0,0.4,73,0.00,,,0.00,WUHU216HW,2013-04-15 09:21:00,
2013-04-15 02:26:00,34.2,26.4,29.89,NE,45,0.0,1.1,73,0.00,,,0.00,WUHU216HW,2013-04-15 09:26:00,
2013-04-15 02:31:00,34.2,26.4,29.89,NE,45,0.0,1.1,73,0.00,,,0.00,WUHU216HW,2013-04-15 09:31:00,
2013-04-15 02:36:00,34.0,26.2,29.89,NE,45,0.0,0.4,73,0.00,,,0.00,WUHU216HW,2013-04-15 09:36:00,
2013-04-15 02:39:00,33.8,26.0,29.89,NNE,23,0.0,0.9,73,0.00,,,0.00,WUHU216HW,2013-04-15 09:39:00,
2013-04-15 03:00:00,33.7,25.2,29.89,NNE,23,0.2,0.2,71,0.00,,,0.00,WUHU216HW,2013-04-15 10:00:00,
2013-04-15 03:03:00,33.7,24.8,29.89,NNE,23,0.0,3.6,70,0.00,,,0.00,WUHU216HW,2013-04-15 10:03:00,
2013-04-15 04:00:00,33.1,23.7,29.90,East,90,3.4,3.4,68,0.00,,,0.00,WUHU216HW,2013-04-15 11:00:00,
2013-04-15 04:06:00,32.9,23.5,29.90,NE,45,0.0,3.4,68,0.00,,,0.00,WUHU216HW,2013-04-15 11:06:00,
2013-04-15 04:12:00,32.9,23.5,29.91,NE,45,0.0,1.8,68,0.00,,,0.00,WUHU216HW,2013-04-15 11:12:00,
2013-04-15 04:18:00,32.8,23.0,29.91,NNE,23,0.0,2.5,67,0.00,,,0.00,WUHU216HW,2013-04-15 11:18:00,
2013-04-15 04:24:00,32.6,22.8,29.91,North,0,0.4,2.5,67,0.00,,,0.00,WUHU216HW,2013-04-15 11:24:00,
2013-04-15 04:31:00,32.6,22.8,29.91,East,90,0.0,2.2,67,0.00,,,0.00,WUHU216HW,2013-04-15 11:31:00,
2013-04-15 04:37:00,32.6,22.8,29.91,NE,45,0.4,4.5,67,0.00,,,0.00,WUHU216HW,2013-04-15 11:37:00,
2013-04-15 04:43:00,32.8,23.0,29.91,NE,45,0.0,4.5,67,0.00,,,0.00,WUHU216HW,2013-04-15 11:43:00,
2013-04-15 04:49:00,32.8,23.0,29.91,NNW,338,0.0,0.9,67,0.00,,,0.00,WUHU216HW,2013-04-15 11:49:00,
2013-04-15 04:56:00,32.6,22.8,29.91,NNW,338,0.0,0.4,67,0.00,,,0.00,WUHU216HW,2013-04-15 11:56:00,
2013-04-15 05:02:00,32.4,22.7,29.91,NNE,23,0.0,1.6,67,0.00,,,0.00,WUHU216HW,2013-04-15 12:02:00,
2013-04-15 05:08:00,32.4,22.3,29.91,NNE,23,0.0,1.6,66,0.00,,,0.00,WUHU216HW,2013-04-15 12:08:00,
2013-04-15 05:14:00,32.6,22.4,29.91,North,0,0.0,2.7,66,0.00,,,0.00,WUHU216HW,2013-04-15 12:14:00,
2013-04-15 05:20:00,32.6,22.4,29.91,NE,45,0.0,1.8,66,0.00,,,0.00,WUHU216HW,2013-04-15 12:20:00,
2013-04-15 05:27:00,32.6,22.1,29.91,NE,45,0.0,0.7,65,0.00,,,0.00,WUHU216HW,2013-04-15 12:27:00,
2013-04-15 05:33:00,32.6,21.7,29.91,NE,45,1.1,4.3,64,0.00,,,0.00,WUHU216HW,2013-04-15 12:33:00,
2013-04-15 05:39:00,32.8,21.2,29.92,East,90,0.4,4.0,62,0.00,,,0.00,WUHU216HW,2013-04-15 12:39:00,
2013-04-15 05:44:00,32.8,21.5,29.92,NNE,23,4.7,4.7,63,0.00,,,0.00,WUHU216HW,2013-04-15 12:44:00,
2013-04-15 05:49:00,32.8,21.2,29.92,SW,225,1.8,6.9,62,0.00,,,0.00,WUHU216HW,2013-04-15 12:49:00,
2013-04-15 05:54:00,32.9,21.3,29.92,ENE,68,0.4,6.9,62,0.00,,,0.00,WUHU216HW,2013-04-15 12:54:00,
2013-04-15 05:59:00,32.9,21.3,29.92,East,90,0.7,2.5,62,0.00,,,0.00,WUHU216HW,2013-04-15 12:59:00,
2013-04-15 06:04:00,32.9,21.7,29.92,NE,45,0.2,2.5,63,0.00,,,0.00,WUHU216HW,2013-04-15 13:04:00,
2013-04-15 06:09:00,32.9,21.7,29.92,NE,45,0.0,2.2,63,0.00,,,0.00,WUHU216HW,2013-04-15 13:09:00,
2013-04-15 06:14:00,32.9,21.7,29.93,SE,135,0.0,0.9,63,0.00,,,0.00,WUHU216HW,2013-04-15 13:14:00,
2013-04-15 06:19:00,33.1,21.9,29.93,NNE,23,0.7,0.9,63,0.00,,,0.00,WUHU216HW,2013-04-15 13:19:00,
2013-04-15 06:24:00,33.1,21.5,29.93,North,0,0.0,1.3,62,0.00,,,0.00,WUHU216HW,2013-04-15 13:24:00,
2013-04-15 06:29:00,33.5,22.1,29.93,North,0,0.4,1.3,63,0.00,,,0.00,WUHU216HW,2013-04-15 13:29:00,
2013-04-15 06:34:00,33.5,21.8,29.93,ENE,68,0.0,0.9,62,0.00,,,0.00,WUHU216HW,2013-04-15 13:34:00,
2013-04-15 06:39:00,33.8,21.4,29.93,NE,45,2.5,6.5,60,0.00,,,0.00,WUHU216HW,2013-04-15 13:39:00,
2013-04-15 06:44:00,34.2,21.3,29.93,East,90,0.7,6.5,59,0.00,,,0.00,WUHU216HW,2013-04-15 13:44:00,
2013-04-15 06:49:00,34.2,20.5,29.94,North,0,5.1,6.3,57,0.00,,,0.00,WUHU216HW,2013-04-15 13:49:00,
2013-04-15 06:54:00,34.4,20.7,29.94,NE,45,1.6,6.3,57,0.00,,,0.00,WUHU216HW,2013-04-15 13:54:00,
2013-04-15 06:59:00,34.4,20.7,29.94,NE,45,3.4,5.8,57,0.00,,,0.00,WUHU216HW,2013-04-15 13:59:00,
2013-04-15 07:04:00,34.6,20.9,29.94,NE,45,1.1,5.6,57,0.00,,,0.00,WUHU216HW,2013-04-15 14:04:00,
2013-04-15 07:09:00,34.7,21.1,29.94,NE,45,1.8,5.6,57,0.00,,,0.00,WUHU216HW,2013-04-15 14:09:00,
2013-04-15 07:14:00,34.9,20.8,29.94,NE,45,4.7,7.6,56,0.00,,,0.00,WUHU216HW,2013-04-15 14:14:00,
2013-04-15 07:19:00,35.1,21.0,29.94,North,0,4.7,10.7,56,0.00,,,0.00,WUHU216HW,2013-04-15 14:19:00,
2013-04-15 07:25:00,35.3,20.7,29.95,ENE,68,1.8,10.7,55,0.00,,,0.00,WUHU216HW,2013-04-15 14:25:00,
2013-04-15 07:30:00,35.3,20.3,29.95,North,0,2.5,9.2,54,0.00,,,0.00,WUHU216HW,2013-04-15 14:30:00,
2013-04-15 07:35:00,35.5,20.4,29.95,NE,45,2.2,7.6,54,0.00,,,0.00,WUHU216HW,2013-04-15 14:35:00,
2013-04-15 07:40:00,35.6,20.6,29.95,NNE,23,3.6,9.2,54,0.00,,,0.00,WUHU216HW,2013-04-15 14:40:00,
2013-04-15 07:45:00,35.8,20.8,29.95,NE,45,3.8,9.2,54,0.00,,,0.00,WUHU216HW,2013-04-15 14:45:00,
2013-04-15 07:50:00,36.2,20.7,29.96,ESE,113,4.0,8.1,53,0.00,,,0.00,WUHU216HW,2013-04-15 14:50:00,
2013-04-15 07:55:00,36.4,20.4,29.96,East,90,3.8,7.2,52,0.00,,,0.00,WUHU216HW,2013-04-15 14:55:00,
2013-04-15 08:00:00,36.5,20.6,29.96,North,0,6.7,7.8,52,0.00,,,0.00,WUHU216HW,2013-04-15 15:00:00,
2013-04-15 08:05:00,36.7,19.9,29.96,NE,45,4.7,8.3,50,0.00,,,0.00,WUHU216HW,2013-04-15 15:05:00,
2013-04-15 08:10:00,36.9,20.1,29.96,NE,45,4.5,8.7,50,0.00,,,0.00,WUHU216HW,2013-04-15 15:10:00,
2013-04-15 08:15:00,37.4,20.5,29.96,NE,45,6.9,8.9,50,0.00,,,0.00,WUHU216HW,2013-04-15 15:15:00,
2013-04-15 09:00:00,40.5,20.7,29.96,NE,45,4.9,4.9,45,0.00,,,0.00,WUHU216HW,2013-04-15 16:00:00,
2013-04-15 10:00:00,41.8,20.8,29.97,NE,45,7.4,7.4,43,0.00,,,0.00,WUHU216HW,2013-04-15 17:00:00,
2013-04-15 10:03:00,42.3,22.3,29.97,NE,45,8.5,12.1,45,0.00,,,0.00,WUHU216HW,2013-04-15 17:03:00,
2013-04-15 10:10:00,42.8,21.8,29.97,NE,45,7.4,8.5,43,0.00,,,0.00,WUHU216HW,2013-04-15 17:10:00,
2013-04-15 10:13:00,42.7,21.6,29.97,ENE,68,14.3,14.3,43,0.00,,,0.00,WUHU216HW,2013-04-15 17:13:00,
2013-04-15 10:21:00,42.1,21.2,29.97,NNE,23,9.2,14.3,43,0.00,,,0.00,WUHU216HW,2013-04-15 17:21:00,
2013-04-15 10:26:00,42.7,22.1,29.97,North,0,3.6,12.3,44,0.00,,,0.00,WUHU216HW,2013-04-15 17:26:00,
2013-04-15 10:31:00,43.0,21.4,29.97,NNE,23,10.5,10.5,42,0.00,,,0.00,WUHU216HW,2013-04-15 17:31:00,
2013-04-15 10:36:00,43.0,21.4,29.98,NNE,23,10.1,11.4,42,0.00,,,0.00,WUHU216HW,2013-04-15 17:36:00,
2013-04-15 10:43:00,43.2,21.6,29.98,NNE,23,8.5,12.5,42,0.00,,,0.00,WUHU216HW,2013-04-15 17:43:00,
2013-04-15 10:48:00,43.6,22.4,29.97,NE,45,3.4,12.5,43,0.00,,,0.00,WUHU216HW,2013-04-15 17:48:00,
2013-04-15 10:54:00,44.3,22.5,29.97,NNW,338,4.9,10.5,42,0.00,,,0.00,WUHU216HW,2013-04-15 17:54:00,
2013-04-15 10:59:00,44.5,22.7,29.97,East,90,5.8,9.2,42,0.00,,,0.00,WUHU216HW,2013-04-15 17:59:00,
2013-04-15 11:04:00,44.6,22.9,29.97,NNE,23,7.4,8.5,42,0.00,,,0.00,WUHU216HW,2013-04-15 18:04:00,
2013-04-15 11:09:00,45.0,22.7,29.97,NE,45,9.4,11.2,41,0.00,,,0.00,WUHU216HW,2013-04-15 18:09:00,
2013-04-15 11:14:00,44.6,21.8,29.97,NNE,23,4.0,13.9,40,0.00,,,0.00,WUHU216HW,2013-04-15 18:14:00,
2013-04-15 11:19:00,44.6,21.8,29.97,NNE,23,11.4,14.3,40,0.00,,,0.00,WUHU216HW,2013-04-15 18:19:00,
2013-04-15 11:24:00,44.6,21.8,29.97,NNE,23,5.4,14.3,40,0.00,,,0.00,WUHU216HW,2013-04-15 18:24:00,
2013-04-15 11:29:00,45.0,22.2,29.97,ENE,68,6.3,12.8,40,0.00,,,0.00,WUHU216HW,2013-04-15 18:29:00,
2013-04-15 11:35:00,45.4,22.4,29.97,NE,45,6.5,12.1,40,0.00,,,0.00,WUHU216HW,2013-04-15 18:35:00,
2013-04-15 11:40:00,45.7,23.3,29.97,NE,45,3.6,12.1,41,0.00,,,0.00,WUHU216HW,2013-04-15 18:40:00,
2013-04-15 11:45:00,46.1,23.6,29.97,ENE,68,4.0,12.1,41,0.00,,,0.00,WUHU216HW,2013-04-15 18:45:00,
2013-04-15 11:50:00,46.3,23.8,29.97,NE,45,7.2,12.1,41,0.00,,,0.00,WUHU216HW,2013-04-15 18:50:00,
2013-04-15 11:55:00,46.3,23.2,29.97,North,0,11.0,13.4,40,0.00,,,0.00,WUHU216HW,2013-04-15 18:55:00,
2013-04-15 12:00:00,46.4,24.5,29.97,NE,45,6.5,13.4,42,0.00,,,0.00,WUHU216HW,2013-04-15 19:00:00,
2013-04-15 12:06:00,46.8,23.8,29.97,ENE,68,5.6,12.3,40,0.00,,,0.00,WUHU216HW,2013-04-15 19:06:00,
2013-04-15 12:11:00,46.8,23.0,29.97,North,0,8.3,12.3,39,0.00,,,0.00,WUHU216HW,2013-04-15 19:11:00,
2013-04-15 12:16:00,46.4,22.8,29.97,NNE,23,5.4,11.2,39,0.00,,,0.00,WUHU216HW,2013-04-15 19:16:00,
2013-04-15 12:21:00,47.0,23.9,29.97,NE,45,5.4,8.7,40,0.00,,,0.00,WUHU216HW,2013-04-15 19:21:00,
2013-04-15 12:26:00,47.5,24.4,29.97,NE,45,6.3,9.8,40,0.00,,,0.00,WUHU216HW,2013-04-15 19:26:00,
2013-04-15 12:31:00,47.2,22.7,29.97,North,0,5.8,11.2,38,0.00,,,0.00,WUHU216HW,2013-04-15 19:31:00,
2013-04-15 12:36:00,46.6,22.9,29.97,NNE,23,6.9,12.8,39,0.00,,,0.00,WUHU216HW,2013-04-15 19:36:00,
2013-04-15 12:41:00,46.6,22.9,29.97,NE,45,3.1,12.8,39,0.00,,,0.00,WUHU216HW,2013-04-15 19:41:00,
2013-04-15 12:46:00,47.2,23.4,29.97,NE,45,6.9,11.0,39,0.00,,,0.00,WUHU216HW,2013-04-15 19:46:00,
2013-04-15 12:52:00,46.8,23.0,29.97,NNE,23,6.3,9.4,39,0.00,,,0.00,WUHU216HW,2013-04-15 19:52:00,
2013-04-15 12:57:00,46.1,21.8,29.97,NNE,23,7.6,9.6,38,0.00,,,0.00,WUHU216HW,2013-04-15 19:57:00,
2013-04-15 13:02:00,45.5,22.0,29.97,NNE,23,8.9,10.3,39,0.00,,,0.00,WUHU216HW,2013-04-15 20:02:00,
2013-04-15 13:07:00,45.4,21.1,29.97,North,0,5.1,10.3,38,0.00,,,0.00,WUHU216HW,2013-04-15 20:07:00,
2013-04-15 13:12:00,45.4,22.4,29.97,NNE,23,7.6,9.8,40,0.00,,,0.00,WUHU216HW,2013-04-15 20:12:00,
2013-04-15 13:17:00,46.1,21.8,29.97,NNW,338,5.4,12.3,38,0.00,,,0.00,WUHU216HW,2013-04-15 20:17:00,
2013-04-15 13:22:00,45.9,21.6,29.97,ENE,68,5.6,12.3,38,0.00,,,0.00,WUHU216HW,2013-04-15 20:22:00,
2013-04-15 13:28:00,46.3,23.2,29.97,NE,45,4.5,10.1,40,0.00,,,0.00,WUHU216HW,2013-04-15 20:28:00,
2013-04-15 13:33:00,47.0,23.9,29.97,NE,45,7.6,9.2,40,0.00,,,0.00,WUHU216HW,2013-04-15 20:33:00,
2013-04-15 13:38:00,47.3,23.6,29.97,North,0,7.6,10.7,39,0.00,,,0.00,WUHU216HW,2013-04-15 20:38:00,
2013-04-15 13:43:00,47.2,22.7,29.97,NNE,23,6.7,12.8,38,0.00,,,0.00,WUHU216HW,2013-04-15 20:43:00,
2013-04-15 13:48:00,47.3,23.6,29.97,NNE,23,4.0,12.8,39,0.00,,,0.00,WUHU216HW,2013-04-15 20:48:00,
2013-04-15 13:53:00,47.2,22.1,29.97,North,0,6.0,10.5,37,0.00,,,0.00,WUHU216HW,2013-04-15 20:53:00,
2013-04-15 13:58:00,47.2,22.7,29.97,NE,45,9.4,11.9,38,0.00,,,0.00,WUHU216HW,2013-04-15 20:58:00,
2013-04-15 14:03:00,47.9,23.4,29.97,NE,45,5.8,11.9,38,0.00,,,0.00,WUHU216HW,2013-04-15 21:03:00,
2013-04-15 14:09:00,48.4,23.9,29.97,North,0,4.9,11.4,38,0.00,,,0.00,WUHU216HW,2013-04-15 21:09:00,
2013-04-15 14:14:00,47.9,23.4,29.97,NNW,338,11.4,11.4,38,0.00,,,0.00,WUHU216HW,2013-04-15 21:14:00,
2013-04-15 14:19:00,47.2,22.7,29.97,NNE,23,7.6,11.4,38,0.00,,,0.00,WUHU216HW,2013-04-15 21:19:00,
2013-04-15 14:24:00,47.5,23.0,29.97,NE,45,5.4,11.4,38,0.00,,,0.00,WUHU216HW,2013-04-15 21:24:00,
2013-04-15 14:29:00,47.7,23.2,29.97,East,90,1.8,11.2,38,0.00,,,0.00,WUHU216HW,2013-04-15 21:29:00,
2013-04-15 14:34:00,48.4,23.9,29.97,NE,45,8.5,10.7,38,0.00,,,0.00,WUHU216HW,2013-04-15 21:34:00,
2013-04-15 14:39:00,48.1,22.9,29.97,NE,45,6.9,13.2,37,0.00,,,0.00,WUHU216HW,2013-04-15 21:39:00,
2013-04-15 14:44:00,47.9,23.4,29.97,North,0,3.4,13.2,38,0.00,,,0.00,WUHU216HW,2013-04-15 21:44:00,
2013-04-15 14:50:00,47.5,23.0,29.97,NE,45,2.9,9.8,38,0.00,,,0.00,WUHU216HW,2013-04-15 21:50:00,
2013-04-15 14:55:00,47.5,23.0,29.98,NNE,23,4.9,9.2,38,0.00,,,0.00,WUHU216HW,2013-04-15 21:55:00,
2013-04-15 15:00:00,47.3,22.9,29.97,ENE,68,3.4,9.2,38,0.00,,,0.00,WUHU216HW,2013-04-15 22:00:00,
2013-04-15 15:05:00,47.5,23.0,29.98,North,0,8.5,8.5,38,0.00,,,0.00,WUHU216HW,2013-04-15 22:05:00,
2013-04-15 15:10:00,47.3,22.2,29.98,NNE,23,3.8,8.5,37,0.00,,,0.00,WUHU216HW,2013-04-15 22:10:00,
2013-04-15 15:15:00,47.3,22.2,29.98,North,0,3.1,8.5,37,0.00,,,0.00,WUHU216HW,2013-04-15 22:15:00,
2013-04-15 15:20:00,47.7,22.5,29.98,ENE,68,10.7,10.7,37,0.00,,,0.00,WUHU216HW,2013-04-15 22:20:00,
2013-04-15 15:25:00,47.7,22.5,29.98,ENE,68,4.3,10.7,37,0.00,,,0.00,WUHU216HW,2013-04-15 22:25:00,
2013-04-15 15:31:00,47.5,21.7,29.98,NNE,23,0.9,9.8,36,0.00,,,0.00,WUHU216HW,2013-04-15 22:31:00,
2013-04-15 15:36:00,47.3,21.5,29.98,NNE,23,6.0,9.8,36,0.00,,,0.00,WUHU216HW,2013-04-15 22:36:00,
2013-04-15 15:41:00,47.3,21.5,29.98,NE,45,3.6,8.7,36,0.00,,,0.00,WUHU216HW,2013-04-15 22:41:00,
2013-04-15 15:46:00,47.7,22.5,29.98,NE,45,9.8,9.8,37,0.00,,,0.00,WUHU216HW,2013-04-15 22:46:00,
2013-04-15 15:51:00,48.1,22.2,29.98,NE,45,4.9,10.5,36,0.00,,,0.00,WUHU216HW,2013-04-15 22:51:00,
2013-04-15 15:56:00,47.7,21.9,29.98,NNE,23,2.7,11.6,36,0.00,,,0.00,WUHU216HW,2013-04-15 22:56:00,
2013-04-15 16:01:00,47.5,21.7,29.98,NNE,23,6.9,11.6,36,0.00,,,0.00,WUHU216HW,2013-04-15 23:01:00,
2013-04-15 16:07:00,47.3,21.5,29.98,NE,45,3.6,11.6,36,0.00,,,0.00,WUHU216HW,2013-04-15 23:07:00,
2013-04-15 16:12:00,47.3,21.5,29.98,NNE,23,8.9,11.6,36,0.00,,,0.00,WUHU216HW,2013-04-15 23:12:00,
2013-04-15 16:17:00,47.0,20.5,29.99,NNE,23,6.0,10.7,35,0.00,,,0.00,WUHU216HW,2013-04-15 23:17:00,
2013-04-15 16:22:00,47.0,20.5,29.98,NE,45,2.9,9.4,35,0.00,,,0.00,WUHU216HW,2013-04-15 23:22:00,
2013-04-15 16:27:00,47.2,21.4,29.98,NNE,23,6.9,10.7,36,0.00,,,0.00,WUHU216HW,2013-04-15 23:27:00,
2013-04-15 16:32:00,47.3,20.3,29.98,NNE,23,6.0,10.7,34,0.00,,,0.00,WUHU216HW,2013-04-15 23:32:00,
2013-04-15 16:37:00,47.2,20.1,29.99,NNE,23,7.6,10.5,34,0.00,,,0.00,WUHU216HW,2013-04-15 23:37:00,
2013-04-15 16:42:00,47.0,19.3,29.99,NNE,23,7.4,10.5,33,0.00,,,0.00,WUHU216HW,2013-04-15 23:42:00,
2013-04-15 16:48:00,46.6,19.5,29.99,North,0,4.9,8.7,34,0.00,,,0.00,WUHU216HW,2013-04-15 23:48:00,
2013-04-15 16:53:00,47.2,21.4,29.99,NNE,23,6.3,11.4,36,0.00,,,0.00,WUHU216HW,2013-04-15 23:53:00,
2013-04-15 16:58:00,47.7,21.3,29.99,North,0,3.4,11.4,35,0.00,,,0.00,WUHU216HW,2013-04-15 23:58:00,
2013-04-15 17:03:00,47.9,22.1,29.99,NE,45,9.2,10.7,36,0.00,,,0.00,WUHU216HW,2013-04-16 00:03:00,
2013-04-15 17:08:00,47.7,20.5,29.99,NNE,23,6.3,15.4,34,0.00,,,0.00,WUHU216HW,2013-04-16 00:08:00,
2013-04-15 17:13:00,47.5,19.7,29.99,NNE,23,4.5,15.4,33,0.00,,,0.00,WUHU216HW,2013-04-16 00:13:00,
2013-04-15 17:18:00,47.0,19.3,29.99,North,0,7.4,12.8,33,0.00,,,0.00,WUHU216HW,2013-04-16 00:18:00,
2013-04-15 17:23:00,47.0,19.3,30.00,NNE,23,9.2,9.8,33,0.00,,,0.00,WUHU216HW,2013-04-16 00:23:00,
2013-04-15 17:29:00,47.0,19.3,30.00,NNE,23,10.3,11.2,33,0.00,,,0.00,WUHU216HW,2013-04-16 00:29:00,
2013-04-15 17:34:00,46.6,18.9,30.00,NNE,23,8.5,11.2,33,0.00,,,0.00,WUHU216HW,2013-04-16 00:34:00,
2013-04-15 17:39:00,46.3,19.3,30.00,ESE,113,6.3,10.3,34,0.00,,,0.00,WUHU216HW,2013-04-16 00:39:00,
2013-04-15 17:44:00,46.1,19.1,30.00,NE,45,5.6,10.3,34,0.00,,,0.00,WUHU216HW,2013-04-16 00:44:00,
2013-04-15 17:49:00,46.3,18.5,30.00,NNW,338,2.7,9.8,33,0.00,,,0.00,WUHU216HW,2013-04-16 00:49:00,
2013-04-15 17:54:00,46.3,18.5,30.01,NNE,23,6.3,9.8,33,0.00,,,0.00,WUHU216HW,2013-04-16 00:54:00,
2013-04-15 17:59:00,46.4,19.5,30.01,North,0,7.6,11.6,34,0.00,,,0.00,WUHU216HW,2013-04-16 00:59:00,
2013-04-15 18:04:00,46.1,18.5,30.01,North,0,5.4,11.6,33,0.00,,,0.00,WUHU216HW,2013-04-16 01:04:00,
2013-04-15 18:10:00,45.9,18.3,30.01,NNE,23,7.6,10.5,33,0.00,,,0.00,WUHU216HW,2013-04-16 01:10:00,
2013-04-15 18:15:00,45.7,19.5,30.01,North,0,7.4,9.2,35,0.00,,,0.00,WUHU216HW,2013-04-16 01:15:00,
2013-04-15 18:20:00,45.5,19.3,30.02,NNE,23,4.7,11.0,35,0.00,,,0.00,WUHU216HW,2013-04-16 01:20:00,
2013-04-15 18:25:00,45.4,19.1,30.02,NNE,23,1.8,11.0,35,0.00,,,0.00,WUHU216HW,2013-04-16 01:25:00,
2013-04-15 18:30:00,45.2,18.9,30.02,NNE,23,7.2,9.4,35,0.00,,,0.00,WUHU216HW,2013-04-16 01:30:00,
2013-04-15 18:35:00,45.0,19.4,30.02,NNE,23,2.5,9.4,36,0.00,,,0.00,WUHU216HW,2013-04-16 01:35:00,
2013-04-15 18:40:00,44.8,19.3,30.02,North,0,4.7,9.2,36,0.00,,,0.00,WUHU216HW,2013-04-16 01:40:00,
2013-04-15 18:46:00,44.6,19.1,30.02,NE,45,4.0,8.7,36,0.00,,,0.00,WUHU216HW,2013-04-16 01:46:00,
2013-04-15 18:51:00,44.6,19.1,30.02,North,0,3.4,11.4,36,0.00,,,0.00,WUHU216HW,2013-04-16 01:51:00,
2013-04-15 18:56:00,44.5,19.0,30.02,ENE,68,6.9,11.4,36,0.00,,,0.00,WUHU216HW,2013-04-16 01:56:00,
2013-04-15 19:01:00,44.5,18.3,30.02,NNE,23,4.0,9.8,35,0.00,,,0.00,WUHU216HW,2013-04-16 02:01:00,
2013-04-15 19:06:00,44.3,18.8,30.02,North,0,5.6,9.8,36,0.00,,,0.00,WUHU216HW,2013-04-16 02:06:00,
2013-04-15 19:11:00,44.1,18.6,30.02,NNE,23,3.4,9.8,36,0.00,,,0.00,WUHU216HW,2013-04-16 02:11:00,
2013-04-15 19:16:00,43.7,18.3,30.03,North,0,1.8,10.1,36,0.00,,,0.00,WUHU216HW,2013-04-16 02:16:00,
2013-04-15 19:21:00,43.6,18.8,30.03,NE,45,7.4,10.1,37,0.00,,,0.00,WUHU216HW,2013-04-16 02:21:00,
2013-04-15 19:27:00,43.4,18.6,30.03,North,0,3.6,7.6,37,0.00,,,0.00,WUHU216HW,2013-04-16 02:27:00,
2013-04-15 19:32:00,43.2,18.5,30.03,NNE,23,4.7,6.9,37,0.00,,,0.00,WUHU216HW,2013-04-16 02:32:00,
2013-04-15 19:37:00,43.0,19.0,30.03,ENE,68,3.1,6.9,38,0.00,,,0.00,WUHU216HW,2013-04-16 02:37:00,
2013-04-15 19:42:00,42.8,18.8,30.04,North,0,2.2,6.5,38,0.00,,,0.00,WUHU216HW,2013-04-16 02:42:00,
2013-04-15 19:47:00,42.7,18.6,30.04,North,0,4.0,6.5,38,0.00,,,0.00,WUHU216HW,2013-04-16 02:47:00,
2013-04-15 19:52:00,42.5,18.6,30.04,North,0,1.3,5.8,38,0.00,,,0.00,WUHU216HW,2013-04-16 02:52:00,
2013-04-15 19:56:00,42.1,18.8,30.04,NNE,23,4.0,6.5,39,0.00,,,0.00,WUHU216HW,2013-04-16 02:56:00,
2013-04-15 20:01:00,42.1,18.8,30.04,NE,45,1.6,6.5,39,0.00,,,0.00,WUHU216HW,2013-04-16 03:01:00,
2013-04-15 20:07:00,41.8,18.6,30.04,NNE,23,1.8,7.6,39,0.00,,,0.00,WUHU216HW,2013-04-16 03:07:00,
2013-04-15 20:12:00,41.8,18.6,30.05,NE,45,4.0,7.6,39,0.00,,,0.00,WUHU216HW,2013-04-16 03:12:00,
2013-04-15 20:17:00,41.6,18.4,30.05,NNE,23,3.6,7.6,39,0.00,,,0.00,WUHU216HW,2013-04-16 03:17:00,
2013-04-15 20:22:00,41.4,18.9,30.05,NNE,23,6.3,6.3,40,0.00,,,0.00,WUHU216HW,2013-04-16 03:22:00,
2013-04-15 20:27:00,41.2,18.7,30.06,North,0,5.4,6.3,40,0.00,,,0.00,WUHU216HW,2013-04-16 03:27:00,
2013-04-15 20:32:00,41.0,18.5,30.06,ENE,68,1.1,5.4,40,0.00,,,0.00,WUHU216HW,2013-04-16 03:32:00,
2013-04-15 20:37:00,40.9,18.4,30.06,NE,45,3.1,3.4,40,0.00,,,0.00,WUHU216HW,2013-04-16 03:37:00,
2013-04-15 20:42:00,40.7,18.7,30.07,NE,45,2.7,8.5,41,0.00,,,0.00,WUHU216HW,2013-04-16 03:42:00,
2013-04-15 20:47:00,40.7,18.7,30.07,NNE,23,2.2,8.5,41,0.00,,,0.00,WUHU216HW,2013-04-16 03:47:00,
2013-04-15 20:52:00,40.5,19.1,30.07,NNE,23,2.9,5.6,42,0.00,,,0.00,WUHU216HW,2013-04-16 03:52:00,
2013-04-15 20:57:00,40.3,18.9,30.07,NNE,23,2.0,4.7,42,0.00,,,0.00,WUHU216HW,2013-04-16 03:57:00,
2013-04-15 21:00:00,40.1,18.8,30.07,NNE,23,4.5,4.5,42,0.00,,,0.00,WUHU216HW,2013-04-16 04:00:00,
2013-04-15 21:05:00,40.1,18.8,30.07,NNE,23,2.0,4.5,42,0.00,,,0.00,WUHU216HW,2013-04-16 04:05:00,
2013-04-15 21:10:00,40.1,19.3,30.07,NNE,23,2.5,4.0,43,0.00,,,0.00,WUHU216HW,2013-04-16 04:10:00,
2013-04-15 21:15:00,40.0,19.2,30.08,NE,45,2.9,4.0,43,0.00,,,0.00,WUHU216HW,2013-04-16 04:15:00,
2013-04-15 21:20:00,39.8,19.0,30.08,NE,45,2.0,3.1,43,0.00,,,0.00,WUHU216HW,2013-04-16 04:20:00,
2013-04-15 21:25:00,39.6,18.8,30.08,ENE,68,2.5,3.1,43,0.00,,,0.00,WUHU216HW,2013-04-16 04:25:00,
2013-04-15 21:30:00,39.2,18.5,30.08,NE,45,1.6,4.5,43,0.00,,,0.00,WUHU216HW,2013-04-16 04:30:00,
2013-04-15 21:35:00,39.2,19.0,30.08,NE,45,1.3,4.5,44,0.00,,,0.00,WUHU216HW,2013-04-16 04:35:00,
2013-04-15 21:40:00,39.1,18.8,30.08,ENE,68,1.8,4.0,44,0.00,,,0.00,WUHU216HW,2013-04-16 04:40:00,
2013-04-15 21:45:00,38.9,18.7,30.08,North,0,1.6,4.0,44,0.00,,,0.00,WUHU216HW,2013-04-16 04:45:00,
2013-04-15 21:50:00,38.7,19.1,30.09,NNE,23,0.4,4.0,45,0.00,,,0.00,WUHU216HW,2013-04-16 04:50:00,
2013-04-15 21:55:00,38.5,18.9,30.09,NNE,23,0.4,4.0,45,0.00,,,0.00,WUHU216HW,2013-04-16 04:55:00,
2013-04-15 22:00:00,38.3,18.7,30.09,NNE,23,0.0,4.0,45,0.00,,,0.00,WUHU216HW,2013-04-16 05:00:00,
2013-04-15 22:05:00,38.2,18.5,30.09,East,90,0.0,4.0,45,0.00,,,0.00,WUHU216HW,2013-04-16 05:05:00,
2013-04-15 22:10:00,38.0,18.4,30.09,East,90,0.0,2.2,45,0.00,,,0.00,WUHU216HW,2013-04-16 05:10:00,
2013-04-15 22:15:00,37.8,18.3,30.09,East,90,0.0,0.7,45,0.00,,,0.00,WUHU216HW,2013-04-16 05:15:00,
2013-04-15 22:20:00,37.3,18.3,30.09,East,90,0.0,0.7,46,0.00,,,0.00,WUHU216HW,2013-04-16 05:20:00,
2013-04-15 22:25:00,37.1,18.6,30.09,East,90,0.0,0.0,47,0.00,,,0.00,WUHU216HW,2013-04-16 05:25:00,
2013-04-15 22:30:00,36.5,18.2,30.09,East,90,0.0,0.0,47,0.00,,,0.00,WUHU216HW,2013-04-16 05:30:00,
2013-04-15 22:35:00,36.4,18.6,30.09,East,90,0.0,0.0,48,0.00,,,0.00,WUHU216HW,2013-04-16 05:35:00,
2013-04-15 22:40:00,35.8,18.5,30.09,East,90,0.0,0.0,49,0.00,,,0.00,WUHU216HW,2013-04-16 05:40:00,
2013-04-15 22:45:00,35.6,18.4,30.09,East,90,0.0,0.0,49,0.00,,,0.00,WUHU216HW,2013-04-16 05:45:00,
2013-04-15 22:50:00,35.3,18.5,30.10,East,90,0.0,0.0,50,0.00,,,0.00,WUHU216HW,2013-04-16 05:50:00,
2013-04-15 23:01:00,34.7,18.5,30.10,East,90,0.0,0.0,51,0.00,,,0.00,WUHU216HW,2013-04-16 06:01:00,
2013-04-15 23:06:00,34.4,18.1,30.10,East,90,0.0,0.0,51,0.00,,,0.00,WUHU216HW,2013-04-16 06:06:00,
2013-04-15 23:11:00,33.8,18.0,30.10,East,90,0.0,0.0,52,0.00,,,0.00,WUHU216HW,2013-04-16 06:11:00,
2013-04-15 23:16:00,33.5,18.1,30.10,East,90,0.0,0.0,53,0.00,,,0.00,WUHU216HW,2013-04-16 06:16:00,
2013-04-15 23:21:00,33.3,17.9,30.10,East,90,0.0,0.0,53,0.00,,,0.00,WUHU216HW,2013-04-16 06:21:00,
2013-04-15 23:27:00,32.9,18.0,30.10,East,90,0.0,0.4,54,0.00,,,0.00,WUHU216HW,2013-04-16 06:27:00,
2013-04-15 23:32:00,32.8,17.8,30.11,East,90,0.0,0.4,54,0.00,,,0.00,WUHU216HW,2013-04-16 06:32:00,
2013-04-15 23:37:00,32.4,18.0,30.11,East,90,0.0,0.0,55,0.00,,,0.00,WUHU216HW,2013-04-16 06:37:00,
2013-04-15 23:42:00,32.2,17.8,30.11,East,90,0.0,0.0,55,0.00,,,0.00,WUHU216HW,2013-04-16 06:42:00,
2013-04-15 23:47:00,32.0,17.6,30.11,East,90,0.0,0.0,55,0.00,,,0.00,WUHU216HW,2013-04-16 06:47:00,
2013-04-15 23:52:00,31.7,17.3,30.11,East,90,0.0,0.0,55,0.00,,,0.00,WUHU216HW,2013-04-16 06:52:00,
2013-04-15 23:57:00,31.5,17.6,30.12,East,90,0.0,0.0,56,0.00,,,0.00,WUHU216HW,2013-04-16 06:57:00,